When you browse on this site, cookies collect data to enhance your experience and personalize the content and advertising you see.
Visit our Privacy Policy to learn more. By continuing to use the site, you agree to this use of cookies and data.
  • In Hungary
  • List of Countries
  • For 7 days
  • Water Temperature
  • Weather Map
  • News
  • Weather Widgets
  • user-avatar
    Login

    Hourly Weather Conkal

    Today, 20 November, Wednesday

    Time Temperature Precipitation Wind Pressure Humidity
    00:00 +21°C° 0 mm 1 mps 761 mmHg 87%
    01:00 +20°C° 0 mm 1 mps 761 mmHg 88%
    02:00 +20°C° 0 mm 1 mps 761 mmHg 89%
    03:00 +19°C° 0 mm 1 mps 761 mmHg 90%
    04:00 +19°C° 0 mm 1 mps 761 mmHg 90%
    05:00 +19°C° 0 mm 1 mps 761 mmHg 90%
    06:00 +19°C° 0 mm 1 mps 761 mmHg 94%
    07:00 +21°C° 0 mm 1 mps 762 mmHg 85%
    08:00 +24°C° 0 mm 2 mps 762 mmHg 75%
    09:00 +26°C° 0 mm 2 mps 763 mmHg 66%
    10:00 +27°C° 0 mm 2 mps 762 mmHg 61%
    11:00 +28°C° 0 mm 2 mps 762 mmHg 55%
    12:00 +30°C° 0 mm 3 mps 761 mmHg 50%
    13:00 +30°C° 0 mm 3 mps 761 mmHg 52%
    14:00 +29°C° 0 mm 3 mps 760 mmHg 54%
    15:00 +29°C° 0 mm 4 mps 760 mmHg 56%
    16:00 +28°C° 0 mm 4 mps 760 mmHg 63%
    17:00 +26°C° 0 mm 4 mps 760 mmHg 70%
    18:00 +23°C° 0 mm 4 mps 760 mmHg 77%
    19:00 +24°C° 0 mm 3 mps 761 mmHg 78%
    20:00 +24°C° 0 mm 3 mps 761 mmHg 79%
    21:00 +22°C° 0 mm 3 mps 762 mmHg 81%
    22:00 +24°C° 0 mm 3 mps 762 mmHg 80%
    23:00 +24°C° 0 mm 3 mps 762 mmHg 79%

    Tomorrow, 21 November, Thursday

    Time Temperature Precipitation Wind Pressure Humidity
    00:00 +24°C° 0 mm 2 mps 761 mmHg 79%
    01:00 +23°C° 0 mm 2 mps 761 mmHg 81%
    02:00 +23°C° 0 mm 2 mps 761 mmHg 83%
    03:00 +21°C° 0 mm 2 mps 761 mmHg 86%
    04:00 +21°C° 0 mm 2 mps 761 mmHg 86%
    05:00 +21°C° 0 mm 2 mps 761 mmHg 87%
    06:00 +21°C° 0 mm 2 mps 761 mmHg 87%
    07:00 +22°C° 0 mm 3 mps 762 mmHg 81%
    08:00 +25°C° 0 mm 3 mps 762 mmHg 74%
    09:00 +27°C° 0 mm 4 mps 762 mmHg 68%
    10:00 +28°C° 0 mm 3 mps 762 mmHg 63%
    11:00 +30°C° 0 mm 3 mps 761 mmHg 59%
    12:00 +31°C° 0 mm 3 mps 761 mmHg 54%
    13:00 +31°C° 0 mm 3 mps 760 mmHg 56%
    14:00 +30°C° 0 mm 3 mps 760 mmHg 59%
    15:00 +30°C° 0 mm 3 mps 759 mmHg 61%
    16:00 +29°C° 0 mm 3 mps 759 mmHg 66%
    17:00 +27°C° 0 mm 3 mps 760 mmHg 71%
    18:00 +25°C° 0 mm 3 mps 760 mmHg 77%
    19:00 +25°C° 0 mm 3 mps 760 mmHg 78%
    20:00 +24°C° 0 mm 3 mps 761 mmHg 78%
    21:00 +24°C° 0 mm 3 mps 761 mmHg 79%
    22:00 +22°C° 0 mm 3 mps 761 mmHg 82%
    23:00 +22°C° 0 mm 3 mps 761 mmHg 85%

    Day after tomorrow, 22 November, Friday

    Time Temperature Precipitation Wind Pressure Humidity
    00:00 +21°C° 0 mm 2 mps 761 mmHg 88%
    01:00 +21°C° 0 mm 2 mps 760 mmHg 89%
    02:00 +20°C° 0 mm 2 mps 760 mmHg 90%
    03:00 +20°C° 0 mm 2 mps 760 mmHg 91%
    04:00 +20°C° 0 mm 2 mps 760 mmHg 91%
    05:00 +20°C° 0 mm 2 mps 760 mmHg 91%
    06:00 +19°C° 0 mm 2 mps 760 mmHg 91%
    07:00 +21°C° 0 mm 2 mps 761 mmHg 82%
    08:00 +25°C° 0 mm 2 mps 761 mmHg 72%
    09:00 +27°C° 0 mm 2 mps 762 mmHg 63%
    10:00 +28°C° 0 mm 2 mps 761 mmHg 55%
    11:00 +30°C° 0 mm 2 mps 761 mmHg 48%
    12:00 +32°C° 0 mm 2 mps 760 mmHg 41%
    13:00 +32°C° 0 mm 2 mps 759 mmHg 41%
    14:00 +32°C° 0 mm 2 mps 759 mmHg 42%
    15:00 +32°C° 0 mm 2 mps 758 mmHg 42%
    16:00 +29°C° 0 mm 2 mps 758 mmHg 53%
    17:00 +27°C° 0 mm 3 mps 758 mmHg 64%
    18:00 +25°C° 0 mm 3 mps 759 mmHg 76%
    19:00 +25°C° 0 mm 3 mps 759 mmHg 78%
    20:00 +24°C° 0 mm 3 mps 759 mmHg 80%
    21:00 +22°C° 0 mm 3 mps 759 mmHg 83%
    22:00 +23°C° 0 mm 2 mps 759 mmHg 86%
    23:00 +21°C° 0 mm 2 mps 759 mmHg 89%

    23 November, Saturday

    Time Temperature Precipitation Wind Pressure Humidity
    00:00 +21°C° 0 mm 2 mps 759 mmHg 91%
    01:00 +21°C° 0 mm 2 mps 759 mmHg 93%
    02:00 +21°C° 0 mm 1 mps 759 mmHg 95%
    03:00 +21°C° 0 mm 1 mps 759 mmHg 97%
    04:00 +21°C° 0 mm 1 mps 759 mmHg 97%
    05:00 +21°C° 0 mm 1 mps 759 mmHg 97%
    06:00 +21°C° 0 mm 1 mps 760 mmHg 97%
    07:00 +23°C° 0 mm 1 mps 760 mmHg 89%
    08:00 +25°C° 0 mm 2 mps 761 mmHg 81%
    09:00 +27°C° 0 mm 2 mps 761 mmHg 72%
    10:00 +29°C° 0 mm 1 mps 761 mmHg 65%
    11:00 +31°C° 0 mm 1 mps 760 mmHg 57%
    12:00 +32°C° 0 mm 1 mps 760 mmHg 49%
    13:00 +32°C° 0 mm 1 mps 759 mmHg 51%
    14:00 +32°C° 0 mm 2 mps 759 mmHg 52%
    15:00 +31°C° 0 mm 2 mps 758 mmHg 54%
    16:00 +29°C° 0 mm 2 mps 758 mmHg 63%
    17:00 +27°C° 0 mm 2 mps 759 mmHg 73%
    18:00 +25°C° 0 mm 2 mps 759 mmHg 82%
    19:00 +25°C° 0 mm 2 mps 759 mmHg 85%
    20:00 +24°C° 0 mm 2 mps 760 mmHg 88%
    21:00 +24°C° 0 mm 2 mps 760 mmHg 91%
    22:00 +23°C° 0 mm 1 mps 760 mmHg 92%
    23:00 +23°C° 0 mm 1 mps 760 mmHg 94%

    24 November, Sunday

    Time Temperature Precipitation Wind Pressure Humidity
    00:00 +23°C° 0 mm 1 mps 760 mmHg 95%
    01:00 +22°C° 0 mm 1 mps 760 mmHg 95%
    02:00 +22°C° 0 mm 1 mps 759 mmHg 95%
    03:00 +22°C° 0 mm 1 mps 759 mmHg 96%
    04:00 +21°C° 0 mm 1 mps 760 mmHg 95%
    05:00 +21°C° 0 mm 1 mps 760 mmHg 95%
    06:00 +21°C° 0 mm 1 mps 760 mmHg 95%
    07:00 +23°C° 0 mm 1 mps 760 mmHg 86%
    08:00 +24°C° 0 mm 0 mps 761 mmHg 76%
    09:00 +26°C° 0 mm 0 mps 761 mmHg 66%
    10:00 +29°C° 0 mm 1 mps 761 mmHg 61%
    11:00 +30°C° 0 mm 1 mps 760 mmHg 56%
    12:00 +31°C° 0 mm 2 mps 760 mmHg 51%
    13:00 +31°C° 0 mm 2 mps 759 mmHg 52%
    14:00 +31°C° 0 mm 2 mps 759 mmHg 53%
    15:00 +31°C° 0 mm 3 mps 758 mmHg 54%
    16:00 +29°C° 0 mm 2 mps 759 mmHg 62%
    17:00 +27°C° 0 mm 2 mps 759 mmHg 71%
    18:00 +25°C° 0 mm 2 mps 759 mmHg 79%
    19:00 +24°C° 0 mm 1 mps 759 mmHg 82%
    20:00 +24°C° 0 mm 1 mps 759 mmHg 84%
    21:00 +23°C° 0 mm 1 mps 760 mmHg 87%
    22:00 +23°C° 0 mm 1 mps 760 mmHg 88%
    23:00 +23°C° 0 mm 1 mps 759 mmHg 89%

    25 November, Monday

    Time Temperature Precipitation Wind Pressure Humidity
    00:00 +21°C° 0 mm 0 mps 759 mmHg 90%
    01:00 +21°C° 0 mm 0 mps 759 mmHg 91%
    02:00 +21°C° 0 mm 0 mps 759 mmHg 92%
    03:00 +20°C° 0 mm 0 mps 758 mmHg 93%
    04:00 +20°C° 0 mm 0 mps 758 mmHg 94%
    05:00 +20°C° 0 mm 0 mps 758 mmHg 95%
    06:00 +20°C° 0 mm 0 mps 758 mmHg 96%
    07:00 +24°C° 0 mm 1 mps 759 mmHg 87%
    08:00 +26°C° 0 mm 1 mps 759 mmHg 79%
    09:00 +28°C° 0 mm 1 mps 759 mmHg 71%
    10:00 +29°C° 0 mm 1 mps 759 mmHg 66%
    11:00 +30°C° 0 mm 1 mps 758 mmHg 61%
    12:00 +32°C° 0 mm 1 mps 758 mmHg 56%
    13:00 +31°C° 0.3 mm 2 mps 757 mmHg 60%
    14:00 +30°C° 0.3 mm 2 mps 756 mmHg 65%
    15:00 +29°C° 0.3 mm 2 mps 756 mmHg 69%
    16:00 +27°C° 0.1 mm 2 mps 756 mmHg 75%
    17:00 +26°C° 0.1 mm 2 mps 756 mmHg 80%
    18:00 +25°C° 0.1 mm 2 mps 757 mmHg 86%
    19:00 +24°C° 0 mm 2 mps 757 mmHg 87%
    20:00 +24°C° 0 mm 2 mps 757 mmHg 89%
    21:00 +23°C° 0 mm 2 mps 758 mmHg 91%
    22:00 +23°C° 0 mm 2 mps 757 mmHg 91%
    23:00 +23°C° 0 mm 2 mps 757 mmHg 92%
    Show more